SV2BBO-11 Weather Reports


Display with metric or nautical units.
time (UTC)temp
F
wind
direction
speed
MPH
gust
MPH
rain 1hr
in
rain 24hr
in
rain mn
in
humidity
%
barometer
mb
20260902173555 84 0 0.0 3.0 0.00 0.00 0.00 61 1014.1
20260902134958 92 193 4.0 10.0 0.00 0.00 0.00 42 1014.1
20260902085327 89 0 0.0 4.0 0.00 0.00 0.00 59 1016.8
20260902080827 87 0 0.0 3.0 0.00 0.00 0.00 62 1016.9
20260902075327 87 0 0.0 3.0 0.00 0.00 0.00 62 1016.9
20260902074827 87 0 0.0 3.0 0.00 0.00 0.00 63 1017.0
20260902073827 86 127 1.0 4.0 0.00 0.00 0.00 63 1017.1
20260902073327 86 0 0.0 2.0 0.00 0.00 0.00 64 1017.0
20260902055601 81 0 0.0 3.0 0.00 0.00 0.00 75 1016.6
20260902054101 79 0 0.0 0.0 0.00 0.00 0.00 76 1016.5
20260902053601 79 0 0.0 0.0 0.00 0.00 0.00 77 1016.6
20260902052601 78 0 0.0 0.0 0.00 0.00 0.00 79 1016.8
20260902050910 77 0 0.0 0.0 0.00 0.00 0.00 80 1016.6
20260902045910 76 0 0.0 0.0 0.00 0.00 0.00 81 1016.6
20260902044910 76 0 0.0 0.0 0.00 0.00 0.00 81 1016.6
20260902044410 76 0 0.0 0.0 0.00 0.00 0.00 81 1016.6
20260902041410 76 0 0.0 0.0 0.00 0.00 0.00 80 1016.5
20260901210800 82 0 0.0 0.0 0.00 0.00 0.00 67 1015.1
20260901205800 82 0 0.0 0.0 0.00 0.00 0.00 68 1015.1
20260901205300 82 0 0.0 0.0 0.00 0.00 0.00 68 1015.1